Time,TemperatureF,DewpointF,PressureIn,WindDirection,WindDirectionDegrees,WindSpeedMPH,WindSpeedGustMPH,Humidity,HourlyPrecipIn,Conditions,Clouds,dailyrainin,SoftwareType,DateUTC
2013-10-05 00:02:00,67.2,63.5,30.04,WSW,237,1.0,4.0,88,0.00,,,0.00,Wunderground v.1.15,2013-10-05 05:02:00,
2013-10-05 00:07:00,67.2,63.5,30.05,NE,38,0.0,4.0,88,0.00,,,0.00,Wunderground v.1.15,2013-10-05 05:07:00,
2013-10-05 00:12:00,67.2,63.5,30.05,ESE,107,0.0,4.0,88,0.00,,,0.00,Wunderground v.1.15,2013-10-05 05:12:00,
2013-10-05 00:17:00,67.2,63.5,30.05,NNE,28,2.0,4.0,88,0.00,,,0.00,Wunderground v.1.15,2013-10-05 05:17:00,
2013-10-05 00:22:00,67.2,63.5,30.05,ESE,112,1.0,2.0,88,0.00,,,0.00,Wunderground v.1.15,2013-10-05 05:22:00,
2013-10-05 00:27:00,67.2,63.5,30.04,ESE,123,0.0,7.0,88,0.00,,,0.00,Wunderground v.1.15,2013-10-05 05:27:00,
2013-10-05 00:32:00,67.1,63.4,30.04,South,182,0.0,5.0,88,0.00,,,0.00,Wunderground v.1.15,2013-10-05 05:32:00,
2013-10-05 00:37:00,67.1,63.4,30.04,East,80,1.0,5.0,88,0.00,,,0.00,Wunderground v.1.15,2013-10-05 05:37:00,
2013-10-05 00:42:00,67.0,63.3,30.04,ESE,123,1.0,4.0,88,0.00,,,0.00,Wunderground v.1.15,2013-10-05 05:42:00,
2013-10-05 00:47:00,67.0,63.3,30.04,SE,146,0.0,4.0,88,0.00,,,0.00,Wunderground v.1.15,2013-10-05 05:47:00,
2013-10-05 00:52:00,66.9,63.2,30.05,SE,140,1.0,4.0,88,0.00,,,0.00,Wunderground v.1.15,2013-10-05 05:52:00,
2013-10-05 00:57:00,66.7,63.0,30.05,SE,130,1.0,5.0,88,0.00,,,0.00,Wunderground v.1.15,2013-10-05 05:57:00,
2013-10-05 01:02:00,66.6,63.3,30.05,SE,137,1.0,4.0,89,0.00,,,0.00,Wunderground v.1.15,2013-10-05 06:02:00,
2013-10-05 01:07:00,66.5,63.2,30.04,SSW,198,0.0,4.0,89,0.00,,,0.00,Wunderground v.1.15,2013-10-05 06:07:00,
2013-10-05 01:12:00,66.5,63.2,30.04,ESE,123,0.0,2.0,89,0.00,,,0.00,Wunderground v.1.15,2013-10-05 06:12:00,
2013-10-05 01:17:00,66.4,63.1,30.05,ESE,121,0.0,5.0,89,0.00,,,0.00,Wunderground v.1.15,2013-10-05 06:17:00,
2013-10-05 01:22:00,66.3,63.0,30.05,ESE,113,0.0,3.0,89,0.00,,,0.00,Wunderground v.1.15,2013-10-05 06:22:00,
2013-10-05 01:27:00,66.3,63.0,30.05,East,98,0.0,3.0,89,0.00,,,0.00,Wunderground v.1.15,2013-10-05 06:27:00,
2013-10-05 01:32:00,66.2,62.9,30.05,ESE,111,0.0,5.0,89,0.00,,,0.00,Wunderground v.1.15,2013-10-05 06:32:00,
2013-10-05 01:37:00,66.1,62.8,30.05,SSE,157,0.0,5.0,89,0.00,,,0.00,Wunderground v.1.15,2013-10-05 06:37:00,
2013-10-05 01:42:00,66.1,62.8,30.05,ESE,109,0.0,3.0,89,0.00,,,0.00,Wunderground v.1.15,2013-10-05 06:42:00,
2013-10-05 01:47:00,66.0,62.7,30.05,SE,130,0.0,4.0,89,0.00,,,0.00,Wunderground v.1.15,2013-10-05 06:47:00,
2013-10-05 01:52:00,65.9,62.6,30.05,ESE,115,0.0,5.0,89,0.00,,,0.00,Wunderground v.1.15,2013-10-05 06:52:00,
2013-10-05 01:57:00,65.8,62.5,30.05,ESE,121,1.0,5.0,89,0.00,,,0.00,Wunderground v.1.15,2013-10-05 06:57:00,
2013-10-05 02:02:00,65.8,62.5,30.04,ESE,118,0.0,4.0,89,0.00,,,0.00,Wunderground v.1.15,2013-10-05 07:02:00,
2013-10-05 02:07:00,65.7,62.4,30.05,East,91,2.0,4.0,89,0.00,,,0.00,Wunderground v.1.15,2013-10-05 07:07:00,
2013-10-05 02:12:00,65.7,62.4,30.05,SSE,151,4.0,7.0,89,0.00,,,0.00,Wunderground v.1.15,2013-10-05 07:12:00,
2013-10-05 02:17:00,65.7,62.0,30.05,SE,134,3.0,8.0,88,0.00,,,0.00,Wunderground v.1.15,2013-10-05 07:17:00,
2013-10-05 02:22:00,65.7,62.0,30.04,SE,130,5.0,5.0,88,0.00,,,0.00,Wunderground v.1.15,2013-10-05 07:22:00,
2013-10-05 02:27:00,65.6,62.3,30.04,SE,140,2.0,6.0,89,0.00,,,0.00,Wunderground v.1.15,2013-10-05 07:27:00,
2013-10-05 02:32:00,65.6,62.3,30.04,East,85,3.0,4.0,89,0.00,,,0.00,Wunderground v.1.15,2013-10-05 07:32:00,
2013-10-05 02:37:00,65.6,62.3,30.04,West,261,0.0,6.0,89,0.00,,,0.00,Wunderground v.1.15,2013-10-05 07:37:00,
2013-10-05 02:42:00,65.7,62.4,30.04,SE,128,1.0,5.0,89,0.00,,,0.00,Wunderground v.1.15,2013-10-05 07:42:00,
2013-10-05 02:47:00,65.7,62.4,30.04,SE,130,2.0,5.0,89,0.00,,,0.00,Wunderground v.1.15,2013-10-05 07:47:00,
2013-10-05 02:52:00,65.7,62.4,30.04,SSW,199,3.0,6.0,89,0.00,,,0.00,Wunderground v.1.15,2013-10-05 07:52:00,
2013-10-05 02:57:00,65.7,62.0,30.04,SSE,151,3.0,6.0,88,0.00,,,0.00,Wunderground v.1.15,2013-10-05 07:57:00,
2013-10-05 03:02:00,65.8,62.1,30.04,ESE,104,1.0,4.0,88,0.00,,,0.00,Wunderground v.1.15,2013-10-05 08:02:00,
2013-10-05 03:07:00,65.8,62.1,30.04,SSW,198,0.0,5.0,88,0.00,,,0.00,Wunderground v.1.15,2013-10-05 08:07:00,
2013-10-05 03:12:00,65.9,62.2,30.04,SSW,192,1.0,7.0,88,0.00,,,0.00,Wunderground v.1.15,2013-10-05 08:12:00,
2013-10-05 03:17:00,65.8,62.1,30.04,SE,140,3.0,7.0,88,0.00,,,0.00,Wunderground v.1.15,2013-10-05 08:17:00,
2013-10-05 03:22:00,65.8,62.1,30.04,SE,137,5.0,6.0,88,0.00,,,0.00,Wunderground v.1.15,2013-10-05 08:22:00,
2013-10-05 03:27:00,65.7,62.0,30.04,ESE,112,1.0,6.0,88,0.00,,,0.00,Wunderground v.1.15,2013-10-05 08:27:00,
2013-10-05 03:32:00,65.8,62.1,30.04,ESE,123,2.0,4.0,88,0.00,,,0.00,Wunderground v.1.15,2013-10-05 08:32:00,
2013-10-05 03:37:00,65.8,62.1,30.04,SE,124,2.0,5.0,88,0.00,,,0.00,Wunderground v.1.15,2013-10-05 08:37:00,
2013-10-05 03:42:00,65.8,62.1,30.04,ESE,119,5.0,5.0,88,0.00,,,0.00,Wunderground v.1.15,2013-10-05 08:42:00,
2013-10-05 03:47:00,65.9,62.2,30.04,SE,133,2.0,6.0,88,0.00,,,0.00,Wunderground v.1.15,2013-10-05 08:47:00,
2013-10-05 03:52:00,66.0,62.3,30.04,SE,146,2.0,7.0,88,0.00,,,0.00,Wunderground v.1.15,2013-10-05 08:52:00,
2013-10-05 03:57:00,66.0,62.3,30.04,East,99,3.0,10.0,88,0.00,,,0.00,Wunderground v.1.15,2013-10-05 08:57:00,
2013-10-05 04:02:00,66.0,62.3,30.04,SE,132,4.0,7.0,88,0.00,,,0.00,Wunderground v.1.15,2013-10-05 09:02:00,
2013-10-05 04:07:00,66.0,62.0,30.04,SE,126,6.0,7.0,87,0.00,,,0.00,Wunderground v.1.15,2013-10-05 09:07:00,
2013-10-05 04:12:00,66.0,62.0,30.04,ESE,111,3.0,5.0,87,0.00,,,0.00,Wunderground v.1.15,2013-10-05 09:12:00,
2013-10-05 04:17:00,66.0,62.0,30.04,SSE,156,5.0,6.0,87,0.00,,,0.00,Wunderground v.1.15,2013-10-05 09:17:00,
2013-10-05 04:22:00,66.0,62.0,30.04,ESE,121,3.0,8.0,87,0.00,,,0.00,Wunderground v.1.15,2013-10-05 09:22:00,
2013-10-05 04:27:00,66.0,62.0,30.04,ESE,107,3.0,8.0,87,0.00,,,0.00,Wunderground v.1.15,2013-10-05 09:27:00,
2013-10-05 04:32:00,66.0,62.0,30.04,SE,142,3.0,5.0,87,0.00,,,0.00,Wunderground v.1.15,2013-10-05 09:32:00,
2013-10-05 04:37:00,65.9,61.9,30.04,South,180,3.0,5.0,87,0.00,,,0.00,Wunderground v.1.15,2013-10-05 09:37:00,
2013-10-05 04:42:00,66.0,62.0,30.05,SSW,202,3.0,7.0,87,0.00,,,0.00,Wunderground v.1.15,2013-10-05 09:42:00,
2013-10-05 04:47:00,66.2,61.9,30.04,SSE,155,5.0,9.0,86,0.00,,,0.00,Wunderground v.1.15,2013-10-05 09:47:00,
2013-10-05 04:52:00,66.3,62.0,30.04,SE,139,2.0,6.0,86,0.00,,,0.00,Wunderground v.1.15,2013-10-05 09:52:00,
2013-10-05 04:57:00,66.3,62.0,30.04,SW,214,4.0,8.0,86,0.00,,,0.00,Wunderground v.1.15,2013-10-05 09:57:00,
2013-10-05 05:02:00,66.3,62.0,30.04,East,91,1.0,6.0,86,0.00,,,0.00,Wunderground v.1.15,2013-10-05 10:02:00,
2013-10-05 05:07:00,66.4,61.8,30.05,SSE,159,2.0,8.0,85,0.00,,,0.00,Wunderground v.1.15,2013-10-05 10:07:00,
2013-10-05 05:12:00,66.6,61.9,30.05,SW,215,2.0,4.0,85,0.00,,,0.00,Wunderground v.1.15,2013-10-05 10:12:00,
2013-10-05 05:17:00,67.0,62.0,30.05,South,182,4.0,6.0,84,0.00,,,0.00,Wunderground v.1.15,2013-10-05 10:17:00,
2013-10-05 05:22:00,67.3,62.0,30.05,South,186,2.0,5.0,83,0.00,,,0.00,Wunderground v.1.15,2013-10-05 10:22:00,
2013-10-05 05:27:00,67.6,61.9,30.05,SSE,148,4.0,7.0,82,0.00,,,0.00,Wunderground v.1.15,2013-10-05 10:27:00,
2013-10-05 05:32:00,67.7,62.0,30.05,SW,219,3.0,9.0,82,0.00,,,0.00,Wunderground v.1.15,2013-10-05 10:32:00,
2013-10-05 05:37:00,67.8,62.1,30.05,SSE,155,3.0,10.0,82,0.00,,,0.00,Wunderground v.1.15,2013-10-05 10:37:00,
2013-10-05 05:42:00,67.7,62.0,30.05,SSW,193,4.0,7.0,82,0.00,,,0.00,Wunderground v.1.15,2013-10-05 10:42:00,
2013-10-05 05:47:00,67.8,61.8,30.06,SSW,194,1.0,7.0,81,0.00,,,0.00,Wunderground v.1.15,2013-10-05 10:47:00,
2013-10-05 05:52:00,67.9,61.9,30.05,SW,219,3.0,5.0,81,0.00,,,0.00,Wunderground v.1.15,2013-10-05 10:52:00,
2013-10-05 05:57:00,67.9,61.9,30.06,SSW,202,1.0,5.0,81,0.00,,,0.00,Wunderground v.1.15,2013-10-05 10:57:00,
2013-10-05 06:02:00,67.9,61.9,30.06,ENE,75,1.0,6.0,81,0.00,,,0.00,Wunderground v.1.15,2013-10-05 11:02:00,
2013-10-05 06:07:00,67.7,62.0,30.05,SSW,197,1.0,7.0,82,0.00,,,0.00,Wunderground v.1.15,2013-10-05 11:07:00,
2013-10-05 06:12:00,67.5,61.8,30.06,SSE,167,4.0,5.0,82,0.00,,,0.00,Wunderground v.1.15,2013-10-05 11:12:00,
2013-10-05 06:17:00,67.6,61.9,30.05,ESE,117,2.0,6.0,82,0.00,,,0.00,Wunderground v.1.15,2013-10-05 11:17:00,
2013-10-05 06:22:00,67.4,61.7,30.05,SSE,148,4.0,5.0,82,0.00,,,0.00,Wunderground v.1.15,2013-10-05 11:22:00,
2013-10-05 06:27:00,67.3,62.0,30.06,SSE,166,4.0,8.0,83,0.00,,,0.00,Wunderground v.1.15,2013-10-05 11:27:00,
2013-10-05 06:32:00,67.0,61.7,30.05,SE,132,4.0,7.0,83,0.00,,,0.00,Wunderground v.1.15,2013-10-05 11:32:00,
2013-10-05 06:37:00,66.7,61.7,30.05,SE,131,5.0,7.0,84,0.00,,,0.00,Wunderground v.1.15,2013-10-05 11:37:00,
2013-10-05 06:42:00,66.4,61.8,30.05,SSE,147,5.0,7.0,85,0.00,,,0.00,Wunderground v.1.15,2013-10-05 11:42:00,
2013-10-05 06:47:00,66.2,61.9,30.05,South,186,4.0,7.0,86,0.00,,,0.00,Wunderground v.1.15,2013-10-05 11:47:00,
2013-10-05 06:52:00,66.1,61.8,30.05,SE,128,3.0,5.0,86,0.00,,,0.00,Wunderground v.1.15,2013-10-05 11:52:00,
2013-10-05 06:57:00,65.9,61.6,30.06,SE,144,6.0,6.0,86,0.00,,,0.00,Wunderground v.1.15,2013-10-05 11:57:00,
2013-10-05 07:03:00,65.8,61.8,30.05,SE,134,5.0,7.0,87,0.00,,,0.00,Wunderground v.1.15,2013-10-05 12:03:00,
2013-10-05 07:08:00,65.6,61.6,30.05,SE,124,6.0,8.0,87,0.00,,,0.00,Wunderground v.1.15,2013-10-05 12:08:00,
2013-10-05 07:13:00,65.4,61.8,30.05,SE,133,6.0,7.0,88,0.00,,,0.00,Wunderground v.1.15,2013-10-05 12:13:00,
2013-10-05 07:18:00,65.4,61.8,30.05,SE,130,6.0,9.0,88,0.00,,,0.00,Wunderground v.1.15,2013-10-05 12:18:00,
2013-10-05 07:23:00,65.3,61.7,30.05,ESE,121,7.0,8.0,88,0.00,,,0.00,Wunderground v.1.15,2013-10-05 12:23:00,
2013-10-05 07:28:00,65.4,61.8,30.05,SE,130,5.0,9.0,88,0.00,,,0.00,Wunderground v.1.15,2013-10-05 12:28:00,
2013-10-05 07:33:00,65.4,61.8,30.05,ESE,104,4.0,7.0,88,0.00,,,0.00,Wunderground v.1.15,2013-10-05 12:33:00,
2013-10-05 07:38:00,65.4,61.8,30.05,SE,134,6.0,7.0,88,0.00,,,0.00,Wunderground v.1.15,2013-10-05 12:38:00,
2013-10-05 07:43:00,65.4,62.1,30.05,SE,128,6.0,9.0,89,0.00,,,0.00,Wunderground v.1.15,2013-10-05 12:43:00,
2013-10-05 07:48:00,65.5,62.2,30.05,SE,127,4.0,9.0,89,0.00,,,0.00,Wunderground v.1.15,2013-10-05 12:48:00,
2013-10-05 07:53:00,65.7,62.4,30.05,SE,136,4.0,7.0,89,0.00,,,0.00,Wunderground v.1.15,2013-10-05 12:53:00,
2013-10-05 07:58:00,65.9,62.6,30.05,South,169,2.0,7.0,89,0.00,,,0.00,Wunderground v.1.15,2013-10-05 12:58:00,
2013-10-05 08:03:00,66.2,63.2,30.05,SE,144,2.0,5.0,90,0.00,,,0.00,Wunderground v.1.15,2013-10-05 13:03:00,
2013-10-05 08:08:00,66.3,63.3,30.05,SE,134,0.0,7.0,90,0.00,,,0.00,Wunderground v.1.15,2013-10-05 13:08:00,
2013-10-05 08:13:00,66.5,63.5,30.05,SE,136,2.0,5.0,90,0.00,,,0.00,Wunderground v.1.15,2013-10-05 13:13:00,
2013-10-05 08:18:00,66.7,63.4,30.05,SSE,148,0.0,7.0,89,0.00,,,0.00,Wunderground v.1.15,2013-10-05 13:18:00,
2013-10-05 08:23:00,67.0,63.6,30.05,ESE,114,1.0,5.0,89,0.00,,,0.00,Wunderground v.1.15,2013-10-05 13:23:00,
2013-10-05 08:28:00,67.2,63.8,30.05,SE,133,0.0,5.0,89,0.00,,,0.00,Wunderground v.1.15,2013-10-05 13:28:00,
2013-10-05 08:33:00,67.4,64.0,30.05,SE,137,3.0,6.0,89,0.00,,,0.00,Wunderground v.1.15,2013-10-05 13:33:00,
2013-10-05 08:38:00,67.7,64.3,30.05,SE,128,0.0,7.0,89,0.00,,,0.00,Wunderground v.1.15,2013-10-05 13:38:00,
2013-10-05 08:43:00,67.9,64.2,30.05,SE,128,3.0,8.0,88,0.00,,,0.00,Wunderground v.1.15,2013-10-05 13:43:00,
2013-10-05 08:48:00,68.2,64.5,30.05,SE,131,0.0,8.0,88,0.00,,,0.00,Wunderground v.1.15,2013-10-05 13:48:00,
2013-10-05 08:53:00,68.3,64.3,30.05,SE,140,0.0,5.0,87,0.00,,,0.00,Wunderground v.1.15,2013-10-05 13:53:00,
2013-10-05 08:58:00,68.4,64.0,30.05,ESE,123,1.0,5.0,86,0.00,,,0.00,Wunderground v.1.15,2013-10-05 13:58:00,
2013-10-05 09:03:00,68.6,64.2,30.05,WSW,257,0.0,5.0,86,0.00,,,0.00,Wunderground v.1.15,2013-10-05 14:03:00,
2013-10-05 09:08:00,68.8,64.4,30.05,SE,134,0.0,5.0,86,0.00,,,0.00,Wunderground v.1.15,2013-10-05 14:08:00,
2013-10-05 09:13:00,69.0,64.6,30.06,ESE,114,0.0,2.0,86,0.00,,,0.00,Wunderground v.1.15,2013-10-05 14:13:00,
2013-10-05 09:18:00,69.2,64.5,30.06,South,182,0.0,4.0,85,0.00,,,0.00,Wunderground v.1.15,2013-10-05 14:18:00,
2013-10-05 09:23:00,69.4,65.0,30.06,ENE,66,0.0,1.0,86,0.00,,,0.00,Wunderground v.1.15,2013-10-05 14:23:00,
2013-10-05 09:28:00,69.6,64.5,30.06,SSE,157,1.0,3.0,84,0.00,,,0.00,Wunderground v.1.15,2013-10-05 14:28:00,
2013-10-05 09:33:00,69.8,64.7,30.06,SE,128,1.0,3.0,84,0.00,,,0.00,Wunderground v.1.15,2013-10-05 14:33:00,
2013-10-05 09:38:00,70.1,65.0,30.06,SE,127,0.0,4.0,84,0.00,,,0.00,Wunderground v.1.15,2013-10-05 14:38:00,
2013-10-05 09:43:00,70.4,65.7,30.06,ESE,113,0.0,4.0,85,0.00,,,0.00,Wunderground v.1.15,2013-10-05 14:43:00,
2013-10-05 09:48:00,70.5,65.4,30.05,SE,126,1.0,8.0,84,0.00,,,0.00,Wunderground v.1.15,2013-10-05 14:48:00,
2013-10-05 09:53:00,70.6,65.5,30.05,East,97,1.0,8.0,84,0.00,,,0.00,Wunderground v.1.15,2013-10-05 14:53:00,
2013-10-05 09:58:00,70.8,66.1,30.05,East,100,0.0,8.0,85,0.00,,,0.00,Wunderground v.1.15,2013-10-05 14:58:00,
2013-10-05 10:03:00,71.0,65.9,30.05,SE,142,0.0,2.0,84,0.00,,,0.00,Wunderground v.1.15,2013-10-05 15:03:00,
2013-10-05 10:08:00,71.1,66.0,30.05,SE,140,1.0,2.0,84,0.00,,,0.00,Wunderground v.1.15,2013-10-05 15:08:00,
2013-10-05 10:13:00,71.4,66.3,30.05,SSW,212,1.0,2.0,84,0.00,,,0.00,Wunderground v.1.15,2013-10-05 15:13:00,
2013-10-05 10:18:00,71.5,66.4,30.05,SE,139,0.0,3.0,84,0.00,,,0.00,Wunderground v.1.15,2013-10-05 15:18:00,
2013-10-05 10:23:00,71.9,66.5,30.05,SSE,151,1.0,4.0,83,0.00,,,0.00,Wunderground v.1.15,2013-10-05 15:23:00,
2013-10-05 10:28:00,72.1,67.0,30.05,SSW,198,0.0,4.0,84,0.00,,,0.00,Wunderground v.1.15,2013-10-05 15:28:00,
2013-10-05 10:33:00,72.1,66.6,30.05,North,355,0.0,2.0,83,0.00,,,0.00,Wunderground v.1.15,2013-10-05 15:33:00,
2013-10-05 10:38:00,72.2,67.1,30.05,ESE,113,1.0,5.0,84,0.00,,,0.00,Wunderground v.1.15,2013-10-05 15:38:00,
2013-10-05 10:43:00,72.5,67.4,30.05,ESE,113,0.0,1.0,84,0.00,,,0.00,Wunderground v.1.15,2013-10-05 15:43:00,
2013-10-05 10:48:00,72.8,67.0,30.05,SSW,200,1.0,4.0,82,0.00,,,0.00,Wunderground v.1.15,2013-10-05 15:48:00,
2013-10-05 10:53:00,72.9,67.4,30.05,WSW,252,0.0,3.0,83,0.00,,,0.00,Wunderground v.1.15,2013-10-05 15:53:00,
2013-10-05 10:58:00,73.0,67.2,30.05,SE,124,0.0,4.0,82,0.00,,,0.00,Wunderground v.1.15,2013-10-05 15:58:00,
2013-10-05 11:03:00,73.0,67.2,30.05,SW,217,0.0,3.0,82,0.00,,,0.00,Wunderground v.1.15,2013-10-05 16:03:00,
2013-10-05 11:08:00,73.1,66.9,30.04,SSW,207,0.0,3.0,81,0.00,,,0.00,Wunderground v.1.15,2013-10-05 16:08:00,
2013-10-05 11:13:00,72.9,66.7,30.05,SSW,192,0.0,2.0,81,0.00,,,0.00,Wunderground v.1.15,2013-10-05 16:13:00,
2013-10-05 11:18:00,72.6,67.1,30.05,SE,137,0.0,4.0,83,0.00,,,0.00,Wunderground v.1.15,2013-10-05 16:18:00,
2013-10-05 11:23:00,72.6,67.1,30.04,SSW,194,0.0,2.0,83,0.00,,,0.00,Wunderground v.1.15,2013-10-05 16:23:00,
2013-10-05 11:28:00,72.5,67.0,30.05,WNW,292,1.0,4.0,83,0.00,,,0.00,Wunderground v.1.15,2013-10-05 16:28:00,
2013-10-05 11:33:00,72.6,66.8,30.05,SW,236,2.0,4.0,82,0.00,,,0.00,Wunderground v.1.15,2013-10-05 16:33:00,
2013-10-05 11:38:00,72.5,67.0,30.05,NW,315,0.0,4.0,83,0.00,,,0.00,Wunderground v.1.15,2013-10-05 16:38:00,
2013-10-05 11:43:00,72.7,66.9,30.05,West,263,1.0,3.0,82,0.00,,,0.00,Wunderground v.1.15,2013-10-05 16:43:00,
2013-10-05 11:48:00,72.9,67.1,30.05,SSW,197,3.0,5.0,82,0.00,,,0.00,Wunderground v.1.15,2013-10-05 16:48:00,
2013-10-05 11:53:00,73.1,66.9,30.05,WSW,238,2.0,5.0,81,0.00,,,0.00,Wunderground v.1.15,2013-10-05 16:53:00,
2013-10-05 11:58:00,73.5,67.7,30.04,WSW,240,0.0,5.0,82,0.00,,,0.00,Wunderground v.1.15,2013-10-05 16:58:00,
2013-10-05 12:03:00,74.1,67.9,30.04,NW,316,1.0,2.0,81,0.00,,,0.00,Wunderground v.1.15,2013-10-05 17:03:00,
2013-10-05 12:08:00,74.7,67.8,30.04,NW,304,0.0,4.0,79,0.00,,,0.00,Wunderground v.1.15,2013-10-05 17:08:00,
2013-10-05 12:13:00,75.0,67.7,30.04,SSE,154,0.0,2.0,78,0.00,,,0.00,Wunderground v.1.15,2013-10-05 17:13:00,
2013-10-05 12:18:00,75.5,67.8,30.03,North,355,2.0,4.0,77,0.00,,,0.00,Wunderground v.1.15,2013-10-05 17:18:00,
2013-10-05 12:23:00,75.5,67.8,30.03,SW,224,1.0,6.0,77,0.00,,,0.00,Wunderground v.1.15,2013-10-05 17:23:00,
2013-10-05 12:28:00,75.7,68.7,30.03,North,350,0.0,6.0,79,0.00,,,0.00,Wunderground v.1.15,2013-10-05 17:28:00,
2013-10-05 12:33:00,75.8,67.7,30.03,NW,325,0.0,2.0,76,0.00,,,0.00,Wunderground v.1.15,2013-10-05 17:33:00,
2013-10-05 12:38:00,75.8,68.4,30.02,WSW,238,0.0,4.0,78,0.00,,,0.00,Wunderground v.1.15,2013-10-05 17:38:00,
2013-10-05 12:43:00,75.7,68.0,30.02,SE,141,0.0,3.0,77,0.00,,,0.00,Wunderground v.1.15,2013-10-05 17:43:00,
2013-10-05 12:48:00,76.0,67.9,30.02,West,281,2.0,3.0,76,0.00,,,0.00,Wunderground v.1.15,2013-10-05 17:48:00,
2013-10-05 12:53:00,76.4,68.3,30.01,SE,136,0.0,4.0,76,0.00,,,0.00,Wunderground v.1.15,2013-10-05 17:53:00,
2013-10-05 12:58:00,76.8,69.0,30.01,NW,317,0.0,4.0,77,0.00,,,0.00,Wunderground v.1.15,2013-10-05 17:58:00,
2013-10-05 13:03:00,76.9,67.6,30.01,WSW,246,0.0,3.0,73,0.00,,,0.00,Wunderground v.1.15,2013-10-05 18:03:00,
2013-10-05 13:08:00,77.2,67.9,30.00,South,176,0.0,3.0,73,0.00,,,0.00,Wunderground v.1.15,2013-10-05 18:08:00,
2013-10-05 13:13:00,77.3,67.6,30.00,SE,138,1.0,4.0,72,0.00,,,0.00,Wunderground v.1.15,2013-10-05 18:13:00,
2013-10-05 13:18:00,77.6,68.7,30.00,WSW,241,0.0,4.0,74,0.00,,,0.00,Wunderground v.1.15,2013-10-05 18:18:00,
2013-10-05 13:23:00,77.9,68.5,30.00,WSW,237,1.0,5.0,73,0.00,,,0.00,Wunderground v.1.15,2013-10-05 18:23:00,
2013-10-05 13:28:00,77.9,68.1,30.00,SW,217,0.0,5.0,72,0.00,,,0.00,Wunderground v.1.15,2013-10-05 18:28:00,
2013-10-05 13:33:00,77.6,67.9,30.00,NW,309,0.0,5.0,72,0.00,,,0.00,Wunderground v.1.15,2013-10-05 18:33:00,
2013-10-05 13:38:00,77.4,68.1,29.99,West,259,3.0,7.0,73,0.00,,,0.00,Wunderground v.1.15,2013-10-05 18:38:00,
2013-10-05 13:43:00,77.3,67.6,29.99,SE,124,0.0,2.0,72,0.00,,,0.00,Wunderground v.1.15,2013-10-05 18:43:00,
2013-10-05 13:48:00,77.3,68.0,29.99,South,171,5.0,5.0,73,0.00,,,0.00,Wunderground v.1.15,2013-10-05 18:48:00,
2013-10-05 13:53:00,77.4,67.7,29.99,SW,233,0.0,3.0,72,0.00,,,0.00,Wunderground v.1.15,2013-10-05 18:53:00,
2013-10-05 13:58:00,77.5,67.4,29.99,ENE,73,2.0,7.0,71,0.00,,,0.00,Wunderground v.1.15,2013-10-05 18:58:00,
2013-10-05 14:03:00,77.7,67.5,29.99,NNE,12,1.0,7.0,71,0.00,,,0.00,Wunderground v.1.15,2013-10-05 19:03:00,
2013-10-05 14:08:00,77.8,68.0,29.99,South,185,0.0,7.0,72,0.00,,,0.00,Wunderground v.1.15,2013-10-05 19:08:00,
2013-10-05 14:13:00,77.9,67.3,29.98,ESE,117,0.0,5.0,70,0.00,,,0.00,Wunderground v.1.15,2013-10-05 19:13:00,
2013-10-05 14:18:00,77.9,67.7,29.98,East,96,1.0,5.0,71,0.00,,,0.00,Wunderground v.1.15,2013-10-05 19:18:00,
2013-10-05 14:23:00,77.7,67.1,29.98,ESE,118,0.0,7.0,70,0.00,,,0.00,Wunderground v.1.15,2013-10-05 19:23:00,
2013-10-05 14:28:00,77.6,67.0,29.98,SSE,150,0.0,7.0,70,0.00,,,0.00,Wunderground v.1.15,2013-10-05 19:28:00,
2013-10-05 14:33:00,77.4,66.8,29.98,SSE,148,0.0,3.0,70,0.00,,,0.00,Wunderground v.1.15,2013-10-05 19:33:00,
2013-10-05 14:38:00,77.4,67.7,29.98,South,176,0.0,3.0,72,0.00,,,0.00,Wunderground v.1.15,2013-10-05 19:38:00,
2013-10-05 14:43:00,77.7,68.4,29.98,NW,313,0.0,1.0,73,0.00,,,0.00,Wunderground v.1.15,2013-10-05 19:43:00,
2013-10-05 14:48:00,77.7,67.5,29.98,WSW,242,1.0,3.0,71,0.00,,,0.00,Wunderground v.1.15,2013-10-05 19:48:00,
2013-10-05 14:53:00,77.8,68.0,29.98,NNW,331,0.0,3.0,72,0.00,,,0.00,Wunderground v.1.15,2013-10-05 19:53:00,
2013-10-05 14:58:00,78.1,67.5,29.98,ESE,112,2.0,3.0,70,0.00,,,0.00,Wunderground v.1.15,2013-10-05 19:58:00,
2013-10-05 15:03:00,78.1,67.5,29.97,NW,315,0.0,5.0,70,0.00,,,0.00,Wunderground v.1.15,2013-10-05 20:03:00,
2013-10-05 15:08:00,77.6,67.4,29.97,NW,312,0.0,5.0,71,0.00,,,0.00,Wunderground v.1.15,2013-10-05 20:08:00,
2013-10-05 15:13:00,77.2,67.9,29.97,SE,130,0.0,5.0,73,0.00,,,0.00,Wunderground v.1.15,2013-10-05 20:13:00,
2013-10-05 15:18:00,76.7,67.8,29.97,SW,225,2.0,5.0,74,0.00,,,0.00,Wunderground v.1.15,2013-10-05 20:18:00,
2013-10-05 15:23:00,76.7,67.4,29.97,South,177,0.0,5.0,73,0.00,,,0.00,Wunderground v.1.15,2013-10-05 20:23:00,
2013-10-05 15:28:00,77.1,68.2,29.97,WNW,286,0.0,5.0,74,0.00,,,0.00,Wunderground v.1.15,2013-10-05 20:28:00,
2013-10-05 15:33:00,77.5,66.9,29.96,WNW,284,1.0,3.0,70,0.00,,,0.00,Wunderground v.1.15,2013-10-05 20:33:00,
2013-10-05 15:38:00,77.9,67.3,29.96,SE,125,0.0,5.0,70,0.00,,,0.00,Wunderground v.1.15,2013-10-05 20:38:00,
2013-10-05 15:43:00,78.3,68.1,29.96,SE,133,1.0,2.0,71,0.00,,,0.00,Wunderground v.1.15,2013-10-05 20:43:00,
2013-10-05 15:48:00,78.6,68.0,29.96,NNW,338,0.0,3.0,70,0.00,,,0.00,Wunderground v.1.15,2013-10-05 20:48:00,
2013-10-05 15:53:00,78.6,67.2,29.96,ESE,123,0.0,3.0,68,0.00,,,0.00,Wunderground v.1.15,2013-10-05 20:53:00,
2013-10-05 15:58:00,78.6,68.0,29.96,SE,137,0.0,4.0,70,0.00,,,0.00,Wunderground v.1.15,2013-10-05 20:58:00,
2013-10-05 16:03:00,78.7,68.5,29.96,WSW,249,0.0,2.0,71,0.00,,,0.00,Wunderground v.1.15,2013-10-05 21:03:00,
2013-10-05 16:08:00,78.7,67.7,29.95,SE,128,0.0,3.0,69,0.00,,,0.00,Wunderground v.1.15,2013-10-05 21:08:00,
2013-10-05 16:13:00,78.9,67.4,29.95,SE,140,0.0,2.0,68,0.00,,,0.00,Wunderground v.1.15,2013-10-05 21:13:00,
2013-10-05 16:18:00,79.2,67.7,29.95,SSE,167,0.0,4.0,68,0.00,,,0.00,Wunderground v.1.15,2013-10-05 21:18:00,
2013-10-05 16:23:00,79.2,67.7,29.95,South,190,0.0,4.0,68,0.00,,,0.00,Wunderground v.1.15,2013-10-05 21:23:00,
2013-10-05 16:28:00,79.2,67.7,29.95,WNW,290,0.0,4.0,68,0.00,,,0.00,Wunderground v.1.15,2013-10-05 21:28:00,
2013-10-05 16:33:00,79.4,67.5,29.95,SW,229,0.0,3.0,67,0.00,,,0.00,Wunderground v.1.15,2013-10-05 21:33:00,
2013-10-05 16:38:00,79.5,68.0,29.95,NE,36,0.0,3.0,68,0.00,,,0.00,Wunderground v.1.15,2013-10-05 21:38:00,
2013-10-05 16:43:00,79.7,67.3,29.95,SSW,202,1.0,3.0,66,0.00,,,0.00,Wunderground v.1.15,2013-10-05 21:43:00,
2013-10-05 16:48:00,79.7,67.8,29.95,SE,126,0.0,3.0,67,0.00,,,0.00,Wunderground v.1.15,2013-10-05 21:48:00,
2013-10-05 16:53:00,79.7,68.2,29.95,SSW,211,0.0,1.0,68,0.00,,,0.00,Wunderground v.1.15,2013-10-05 21:53:00,
2013-10-05 16:58:00,79.6,69.0,29.95,NW,311,0.0,3.0,70,0.00,,,0.00,Wunderground v.1.15,2013-10-05 21:58:00,
2013-10-05 17:03:00,79.5,68.0,29.95,ESE,112,1.0,1.0,68,0.00,,,0.00,Wunderground v.1.15,2013-10-05 22:03:00,
2013-10-05 17:08:00,79.4,68.3,29.95,SE,133,0.0,2.0,69,0.00,,,0.00,Wunderground v.1.15,2013-10-05 22:08:00,
2013-10-05 17:13:00,79.0,67.5,29.95,ESE,123,0.0,1.0,68,0.00,,,0.00,Wunderground v.1.15,2013-10-05 22:13:00,
2013-10-05 17:18:00,78.7,67.7,29.94,ESE,123,0.0,2.0,69,0.00,,,0.00,Wunderground v.1.15,2013-10-05 22:18:00,
2013-10-05 17:23:00,78.4,67.8,29.95,ESE,123,0.0,0.0,70,0.00,,,0.00,Wunderground v.1.15,2013-10-05 22:23:00,
2013-10-05 17:28:00,77.9,67.7,29.95,ESE,123,0.0,1.0,71,0.00,,,0.00,Wunderground v.1.15,2013-10-05 22:28:00,
2013-10-05 17:33:00,77.7,68.0,29.94,ESE,123,0.0,1.0,72,0.00,,,0.00,Wunderground v.1.15,2013-10-05 22:33:00,
2013-10-05 17:38:00,77.3,67.6,29.94,ESE,123,0.0,1.0,72,0.00,,,0.00,Wunderground v.1.15,2013-10-05 22:38:00,
2013-10-05 17:43:00,76.9,67.6,29.94,SE,134,0.0,2.0,73,0.00,,,0.00,Wunderground v.1.15,2013-10-05 22:43:00,
2013-10-05 17:48:00,76.5,67.6,29.94,SE,134,0.0,2.0,74,0.00,,,0.00,Wunderground v.1.15,2013-10-05 22:48:00,
2013-10-05 17:53:00,76.2,67.3,29.94,SE,130,0.0,2.0,74,0.00,,,0.00,Wunderground v.1.15,2013-10-05 22:53:00,
2013-10-05 17:58:00,75.8,66.9,29.94,SSE,150,0.0,2.0,74,0.00,,,0.00,Wunderground v.1.15,2013-10-05 22:58:00,
2013-10-05 18:03:00,75.2,66.7,29.94,SSE,150,1.0,1.0,75,0.00,,,0.00,Wunderground v.1.15,2013-10-05 23:03:00,
2013-10-05 18:08:00,74.2,66.5,29.94,SSE,150,0.0,1.0,77,0.00,,,0.00,Wunderground v.1.15,2013-10-05 23:08:00,
2013-10-05 18:13:00,73.4,66.1,29.94,SE,140,0.0,1.0,78,0.00,,,0.00,Wunderground v.1.15,2013-10-05 23:13:00,
2013-10-05 18:18:00,72.6,65.7,29.95,SE,138,0.0,1.0,79,0.00,,,0.00,Wunderground v.1.15,2013-10-05 23:18:00,
2013-10-05 18:23:00,71.9,65.8,29.95,SE,138,0.0,0.0,81,0.00,,,0.00,Wunderground v.1.15,2013-10-05 23:23:00,
2013-10-05 18:28:00,71.4,65.6,29.95,SE,138,0.0,0.0,82,0.00,,,0.00,Wunderground v.1.15,2013-10-05 23:28:00,
2013-10-05 18:33:00,70.9,65.5,29.95,ESE,110,1.0,2.0,83,0.00,,,0.00,Wunderground v.1.15,2013-10-05 23:33:00,
2013-10-05 18:38:00,70.5,65.1,29.95,SE,126,0.0,3.0,83,0.00,,,0.00,Wunderground v.1.15,2013-10-05 23:38:00,
2013-10-05 18:43:00,70.1,65.0,29.95,ESE,117,1.0,4.0,84,0.00,,,0.00,Wunderground v.1.15,2013-10-05 23:43:00,
2013-10-05 18:48:00,69.8,65.1,29.95,ESE,110,0.0,6.0,85,0.00,,,0.00,Wunderground v.1.15,2013-10-05 23:48:00,
2013-10-05 18:53:00,69.6,64.9,29.95,ESE,120,1.0,3.0,85,0.00,,,0.00,Wunderground v.1.15,2013-10-05 23:53:00,
2013-10-05 18:58:00,69.4,64.7,29.95,East,93,0.0,3.0,85,0.00,,,0.00,Wunderground v.1.15,2013-10-05 23:58:00,
2013-10-05 19:03:00,69.3,64.6,29.95,SE,135,2.0,3.0,85,0.00,,,0.00,Wunderground v.1.15,2013-10-06 00:03:00,
2013-10-05 19:08:00,69.3,64.6,29.95,SE,126,0.0,3.0,85,0.00,,,0.00,Wunderground v.1.15,2013-10-06 00:08:00,
2013-10-05 19:13:00,69.3,64.6,29.95,East,100,0.0,2.0,85,0.00,,,0.00,Wunderground v.1.15,2013-10-06 00:13:00,
2013-10-05 19:18:00,69.3,64.6,29.95,ESE,113,0.0,3.0,85,0.00,,,0.00,Wunderground v.1.15,2013-10-06 00:18:00,
2013-10-05 19:23:00,69.3,64.3,29.95,East,101,0.0,3.0,84,0.00,,,0.00,Wunderground v.1.15,2013-10-06 00:23:00,
2013-10-05 19:28:00,69.3,64.3,29.95,SE,138,1.0,3.0,84,0.00,,,0.00,Wunderground v.1.15,2013-10-06 00:28:00,
2013-10-05 19:33:00,69.5,64.5,29.96,South,175,0.0,3.0,84,0.00,,,0.00,Wunderground v.1.15,2013-10-06 00:33:00,
2013-10-05 19:38:00,69.5,64.1,29.96,South,173,0.0,3.0,83,0.00,,,0.00,Wunderground v.1.15,2013-10-06 00:38:00,
2013-10-05 19:43:00,69.6,64.2,29.95,East,101,1.0,4.0,83,0.00,,,0.00,Wunderground v.1.15,2013-10-06 00:43:00,
2013-10-05 19:48:00,69.7,64.3,29.95,East,86,0.0,4.0,83,0.00,,,0.00,Wunderground v.1.15,2013-10-06 00:48:00,
2013-10-05 19:53:00,69.6,63.9,29.95,ESE,119,0.0,5.0,82,0.00,,,0.00,Wunderground v.1.15,2013-10-06 00:53:00,
2013-10-05 19:58:00,69.6,63.9,29.95,SE,140,1.0,5.0,82,0.00,,,0.00,Wunderground v.1.15,2013-10-06 00:58:00,
2013-10-05 20:03:00,69.6,63.9,29.95,SE,133,1.0,4.0,82,0.00,,,0.00,Wunderground v.1.15,2013-10-06 01:03:00,
2013-10-05 20:08:00,69.5,63.8,29.95,South,188,0.0,4.0,82,0.00,,,0.00,Wunderground v.1.15,2013-10-06 01:08:00,
2013-10-05 20:13:00,69.5,63.4,29.95,South,187,0.0,2.0,81,0.00,,,0.00,Wunderground v.1.15,2013-10-06 01:13:00,
2013-10-05 20:18:00,69.5,63.4,29.95,ESE,111,0.0,3.0,81,0.00,,,0.00,Wunderground v.1.15,2013-10-06 01:18:00,
2013-10-05 20:23:00,69.4,63.3,29.95,SSE,154,0.0,3.0,81,0.00,,,0.00,Wunderground v.1.15,2013-10-06 01:23:00,
2013-10-05 20:28:00,69.4,63.3,29.95,SE,126,0.0,3.0,81,0.00,,,0.00,Wunderground v.1.15,2013-10-06 01:28:00,
2013-10-05 20:33:00,69.4,63.3,29.95,ENE,58,0.0,3.0,81,0.00,,,0.00,Wunderground v.1.15,2013-10-06 01:33:00,
2013-10-05 20:38:00,69.4,63.3,29.95,SSW,200,2.0,5.0,81,0.00,,,0.00,Wunderground v.1.15,2013-10-06 01:38:00,
2013-10-05 20:43:00,69.2,63.5,29.95,ESE,105,2.0,4.0,82,0.00,,,0.00,Wunderground v.1.15,2013-10-06 01:43:00,
2013-10-05 20:48:00,69.1,63.4,29.95,SE,135,1.0,5.0,82,0.00,,,0.00,Wunderground v.1.15,2013-10-06 01:48:00,
2013-10-05 20:53:00,69.0,63.3,29.95,NE,48,1.0,4.0,82,0.00,,,0.00,Wunderground v.1.15,2013-10-06 01:53:00,
2013-10-05 20:58:00,68.9,63.5,29.95,ESE,111,0.0,4.0,83,0.00,,,0.00,Wunderground v.1.15,2013-10-06 01:58:00,
2013-10-05 21:03:00,68.8,63.4,29.95,South,189,0.0,4.0,83,0.00,,,0.00,Wunderground v.1.15,2013-10-06 02:03:00,
2013-10-05 21:08:00,68.8,63.4,29.95,SE,144,3.0,5.0,83,0.00,,,0.00,Wunderground v.1.15,2013-10-06 02:08:00,
2013-10-05 21:13:00,68.7,63.3,29.95,NW,326,0.0,4.0,83,0.00,,,0.00,Wunderground v.1.15,2013-10-06 02:13:00,
2013-10-05 21:18:00,68.6,63.2,29.95,SSW,202,1.0,4.0,83,0.00,,,0.00,Wunderground v.1.15,2013-10-06 02:18:00,
2013-10-05 21:23:00,68.4,63.4,29.95,East,80,0.0,2.0,84,0.00,,,0.00,Wunderground v.1.15,2013-10-06 02:23:00,
2013-10-05 21:28:00,68.3,63.3,29.95,ENE,69,0.0,2.0,84,0.00,,,0.00,Wunderground v.1.15,2013-10-06 02:28:00,
2013-10-05 21:33:00,68.2,63.2,29.95,SSE,157,1.0,4.0,84,0.00,,,0.00,Wunderground v.1.15,2013-10-06 02:33:00,
2013-10-05 21:38:00,68.1,63.1,29.95,WNW,293,0.0,5.0,84,0.00,,,0.00,Wunderground v.1.15,2013-10-06 02:38:00,
2013-10-05 21:43:00,68.1,63.1,29.95,NE,55,0.0,3.0,84,0.00,,,0.00,Wunderground v.1.15,2013-10-06 02:43:00,
2013-10-05 21:48:00,67.9,62.9,29.95,North,10,0.0,6.0,84,0.00,,,0.00,Wunderground v.1.15,2013-10-06 02:48:00,
2013-10-05 21:53:00,67.8,63.1,29.95,NE,54,0.0,3.0,85,0.00,,,0.00,Wunderground v.1.15,2013-10-06 02:53:00,
2013-10-05 21:58:00,67.7,63.0,29.95,SE,142,0.0,4.0,85,0.00,,,0.00,Wunderground v.1.15,2013-10-06 02:58:00,
2013-10-05 22:03:00,67.5,62.8,29.94,ESE,113,0.0,5.0,85,0.00,,,0.00,Wunderground v.1.15,2013-10-06 03:03:00,
2013-10-05 22:08:00,67.3,62.6,29.94,NNE,12,1.0,5.0,85,0.00,,,0.00,Wunderground v.1.15,2013-10-06 03:08:00,
2013-10-05 22:13:00,67.1,62.8,29.94,ENE,64,0.0,4.0,86,0.00,,,0.00,Wunderground v.1.15,2013-10-06 03:13:00,
2013-10-05 22:18:00,67.0,62.7,29.94,WNW,288,0.0,4.0,86,0.00,,,0.00,Wunderground v.1.15,2013-10-06 03:18:00,
2013-10-05 22:23:00,67.0,62.7,29.94,SSE,163,0.0,4.0,86,0.00,,,0.00,Wunderground v.1.15,2013-10-06 03:23:00,
2013-10-05 22:28:00,66.9,62.6,29.94,SE,134,1.0,4.0,86,0.00,,,0.00,Wunderground v.1.15,2013-10-06 03:28:00,
2013-10-05 22:33:00,66.8,62.5,29.94,ESE,118,1.0,4.0,86,0.00,,,0.00,Wunderground v.1.15,2013-10-06 03:33:00,
2013-10-05 22:38:00,66.8,62.5,29.94,WSW,246,3.0,4.0,86,0.00,,,0.00,Wunderground v.1.15,2013-10-06 03:38:00,
2013-10-05 22:43:00,66.7,62.4,29.93,ESE,111,0.0,5.0,86,0.00,,,0.00,Wunderground v.1.15,2013-10-06 03:43:00,
2013-10-05 22:48:00,66.6,62.3,29.93,West,260,2.0,5.0,86,0.00,,,0.00,Wunderground v.1.15,2013-10-06 03:48:00,
2013-10-05 22:53:00,66.5,62.5,29.93,NNW,338,0.0,4.0,87,0.00,,,0.00,Wunderground v.1.15,2013-10-06 03:53:00,
2013-10-05 22:58:00,66.4,62.4,29.93,ESE,120,0.0,7.0,87,0.00,,,0.00,Wunderground v.1.15,2013-10-06 03:58:00,
2013-10-05 23:01:00,66.4,62.4,29.92,SSW,200,2.0,3.0,87,0.00,,,0.00,Wunderground v.1.15,2013-10-06 04:01:00,
2013-10-05 23:06:00,66.3,62.3,29.93,SE,139,0.0,4.0,87,0.00,,,0.00,Wunderground v.1.15,2013-10-06 04:06:00,
2013-10-05 23:11:00,66.4,62.4,29.93,East,80,0.0,2.0,87,0.00,,,0.00,Wunderground v.1.15,2013-10-06 04:11:00,
2013-10-05 23:16:00,66.4,62.4,29.93,SSE,151,0.0,4.0,87,0.00,,,0.00,Wunderground v.1.15,2013-10-06 04:16:00,
2013-10-05 23:21:00,66.4,62.4,29.93,South,185,0.0,1.0,87,0.00,,,0.00,Wunderground v.1.15,2013-10-06 04:21:00,
2013-10-05 23:26:00,66.3,62.3,29.93,West,277,1.0,3.0,87,0.00,,,0.00,Wunderground v.1.15,2013-10-06 04:26:00,
2013-10-05 23:31:00,66.1,62.1,29.92,ESE,116,0.0,0.0,87,0.00,,,0.00,Wunderground v.1.15,2013-10-06 04:31:00,
2013-10-05 23:36:00,65.9,62.2,29.92,ENE,69,3.0,3.0,88,0.00,,,0.00,Wunderground v.1.15,2013-10-06 04:36:00,
2013-10-05 23:41:00,65.7,62.0,29.92,NE,55,0.0,2.0,88,0.00,,,0.00,Wunderground v.1.15,2013-10-06 04:41:00,
2013-10-05 23:46:00,65.7,62.0,29.91,North,5,1.0,5.0,88,0.00,,,0.00,Wunderground v.1.15,2013-10-06 04:46:00,
2013-10-05 23:51:00,65.7,62.0,29.91,SE,140,0.0,4.0,88,0.00,,,0.00,Wunderground v.1.15,2013-10-06 04:51:00,
2013-10-05 23:56:00,65.7,62.0,29.91,SSE,155,0.0,4.0,88,0.00,,,0.00,Wunderground v.1.15,2013-10-06 04:56:00,